Location: Newark
(44.3681°N, 100.3364°W)
Time: 09:35:44
(UTC+00:00)

SR - Pass Details

Date: 02 March 2020
Orbit: 578 x 878 km, 66.7° (Epoch: 06 April)

Event Time Altitude Azimuth Distance (km) Brightness Sun altitude
Rises 04:11:08 0° 330° (NNW) 3,282 ? -38.6°
Reaches altitude 10° 04:13:42 10° 335° (NNW) 2,302 ? -39.0°
Enters shadow 04:14:47 16° 338° (NNW) 1,903 ? -39.2°
